Location: Unspecified
(0.0000°N, 0.0000°E)
Time: 06:34:27
(UTC+00:00)

SR - Pass Details

Date: 22 December 2018
Orbit: 582 x 874 km, 66.7° (Epoch: 15 June)

Event Time Altitude Azimuth Distance (km) Brightness Sun altitude
Rises 21:26:37 0° 169° (SSE) 3,433 - -46.3°
Reaches altitude 10° 21:30:02 10° 148° (SSE) 2,514 - -47.0°
Maximum altitude 21:33:37 17° 110° (ESE) 2,086 - -47.7°
Drops below altitude 10° 21:37:11 10° 72° (ENE) 2,509 - -48.4°
Sets 21:40:34 0° 53° (NE) 3,423 - -49.1°
